Tracking 30166 objects as of 22-Jan-2025
HD Live streaming from Space Station
objects crossing your sky now

ONEWEB-0237

Track ONEWEB-0237 now!
10-day predictions
ONEWEB-0237 is classified as:


NORAD ID: 48770
Int'l Code: 2021-045D
Perigee: 1,207.7 km
Apogee: 1,210.2 km
Inclination: 87.9 °
Period: 109.5 minutes
Semi major axis: 7579 km
RCS: Unknown
Launch date: May 28, 2021
Source: United Kingdom (UK)
Launch site: VOSTOCHNY COSMODROME (VOSTO)
Your satellite tracking list
Your tracking list is empty




NASA's NSSDC Master Catalog

Two Line Element Set (TLE):
1 48770U 21045D   25022.35264287 -.00000028  00000-0 -10875-3 0  9992
2 48770  87.9092   0.9116 0001650  97.8850 262.2468 13.15547981177222
Source of the keplerian elements: AFSPC